Location: Les Gen�tes
(46.3104°N, 1.5969°E)
Time: 01:15:23
(UTC+00:00)

Abrixas rocket - Pass Details

Date: 01 June 2020
Orbit: 343 x 348 km, 48.4° (Epoch: 05 July)

Event Time Altitude Azimuth Distance (km) Brightness Sun altitude
Rises 20:42:40 0° 287° (WNW) 2,169 7.0 -9.3°
Reaches altitude 10° 20:44:42 10° 286° (WNW) 1,323 5.8 -9.5°
Maximum altitude 20:47:39 83° 199° (SSW) 359 1.8 -9.9°
Enters shadow 20:50:05 14° 111° (ESE) 1,107 3.8 -10.1°
